• In India
  • List of Countries
  • For 7 days
  • Water Temperature
  • Satellite Maps
  • Weather Map
  • Weather Widgets
  • user-avatar
    Login

    Hourly Weather Gold Coast

    Today, 21 February, Wednesday

    Time Temperature Precipitation Wind Pressure Humidity
    00:00 +22°C° 0.2 mm 6 mps 754 mmHg 90%
    01:00 +22°C° 0.2 mm 6 mps 754 mmHg 91%
    02:00 +22°C° 0.3 mm 6 mps 754 mmHg 91%
    03:00 +22°C° 0.3 mm 6 mps 755 mmHg 91%
    04:00 +22°C° 0 mm 7 mps 755 mmHg 91%
    05:00 +22°C° 0.3 mm 7 mps 755 mmHg 90%
    06:00 +22°C° 0.3 mm 8 mps 755 mmHg 89%
    07:00 +22°C° 0.3 mm 8 mps 756 mmHg 88%
    08:00 +23°C° 0.5 mm 8 mps 756 mmHg 84%
    09:00 +24°C° 0.5 mm 8 mps 756 mmHg 79%
    10:00 +24°C° 0.5 mm 9 mps 756 mmHg 74%
    11:00 +26°C° 0.3 mm 9 mps 756 mmHg 70%
    12:00 +27°C° 0.3 mm 9 mps 756 mmHg 65%
    13:00 +27°C° 0.3 mm 8 mps 756 mmHg 60%
    14:00 +27°C° 0.1 mm 8 mps 756 mmHg 60%
    15:00 +27°C° 0.1 mm 8 mps 756 mmHg 60%
    16:00 +27°C° 0.1 mm 8 mps 755 mmHg 60%
    17:00 +26°C° 0.1 mm 8 mps 756 mmHg 65%
    18:00 +23°C° 0.1 mm 8 mps 756 mmHg 69%
    19:00 +22°C° 0.1 mm 7 mps 756 mmHg 74%
    20:00 +22°C° 0.1 mm 7 mps 757 mmHg 76%
    21:00 +21°C° 0.1 mm 7 mps 757 mmHg 78%
    22:00 +21°C° 0.1 mm 7 mps 757 mmHg 80%
    23:00 +21°C° 0 mm 7 mps 757 mmHg 80%

    Tomorrow, 22 February, Thursday

    Time Temperature Precipitation Wind Pressure Humidity
    00:00 +21°C° 0 mm 7 mps 757 mmHg 80%
    01:00 +21°C° 0 mm 6 mps 757 mmHg 80%
    02:00 +21°C° 0 mm 6 mps 756 mmHg 80%
    03:00 +21°C° 0 mm 6 mps 756 mmHg 80%
    04:00 +21°C° 0 mm 6 mps 756 mmHg 80%
    05:00 +22°C° 0.2 mm 6 mps 756 mmHg 79%
    06:00 +22°C° 0.2 mm 6 mps 757 mmHg 78%
    07:00 +23°C° 0.2 mm 6 mps 757 mmHg 77%
    08:00 +23°C° 0.1 mm 6 mps 757 mmHg 73%
    09:00 +24°C° 0.1 mm 6 mps 757 mmHg 70%
    10:00 +26°C° 0.1 mm 6 mps 758 mmHg 66%
    11:00 +26°C° 0.1 mm 6 mps 757 mmHg 69%
    12:00 +24°C° 0.1 mm 6 mps 757 mmHg 71%
    13:00 +24°C° 0.1 mm 6 mps 757 mmHg 74%
    14:00 +24°C° 0.1 mm 6 mps 756 mmHg 76%
    15:00 +24°C° 0.1 mm 6 mps 756 mmHg 77%
    16:00 +24°C° 0.1 mm 6 mps 756 mmHg 78%
    17:00 +24°C° 0.3 mm 6 mps 756 mmHg 82%
    18:00 +23°C° 0.3 mm 6 mps 756 mmHg 86%
    19:00 +22°C° 0.3 mm 6 mps 757 mmHg 90%
    20:00 +22°C° 0.5 mm 6 mps 757 mmHg 90%
    21:00 +22°C° 0.5 mm 6 mps 757 mmHg 91%
    22:00 +22°C° 0.5 mm 6 mps 758 mmHg 91%
    23:00 +22°C° 0.6 mm 6 mps 757 mmHg 92%

    Day after tomorrow, 23 February, Friday

    Time Temperature Precipitation Wind Pressure Humidity
    00:00 +22°C° 0.6 mm 5 mps 757 mmHg 93%
    01:00 +22°C° 0.6 mm 5 mps 757 mmHg 93%
    02:00 +22°C° 0.8 mm 5 mps 756 mmHg 94%
    03:00 +22°C° 0.8 mm 5 mps 756 mmHg 94%
    04:00 +22°C° 0.8 mm 5 mps 756 mmHg 95%
    05:00 +22°C° 1.6 mm 5 mps 756 mmHg 95%
    06:00 +23°C° 1.6 mm 5 mps 757 mmHg 95%
    07:00 +23°C° 1.6 mm 5 mps 757 mmHg 95%
    08:00 +23°C° 1.9 mm 5 mps 758 mmHg 93%
    09:00 +25°C° 1.9 mm 5 mps 758 mmHg 92%
    10:00 +25°C° 1.9 mm 5 mps 758 mmHg 90%
    11:00 +25°C° 2.7 mm 5 mps 758 mmHg 91%
    12:00 +25°C° 2.7 mm 5 mps 757 mmHg 92%
    13:00 +25°C° 2.7 mm 5 mps 757 mmHg 93%
    14:00 +25°C° 2.5 mm 5 mps 756 mmHg 93%
    15:00 +25°C° 2.5 mm 5 mps 756 mmHg 93%
    16:00 +25°C° 2.5 mm 5 mps 756 mmHg 93%
    17:00 +25°C° 2.1 mm 5 mps 756 mmHg 94%
    18:00 +25°C° 2.1 mm 5 mps 756 mmHg 95%
    19:00 +23°C° 2.1 mm 5 mps 757 mmHg 95%
    20:00 +23°C° 2.4 mm 5 mps 757 mmHg 96%
    21:00 +23°C° 2.4 mm 4 mps 757 mmHg 96%
    22:00 +23°C° 2.4 mm 4 mps 757 mmHg 96%
    23:00 +23°C° 2.2 mm 4 mps 757 mmHg 96%

    24 February, Saturday

    Time Temperature Precipitation Wind Pressure Humidity
    00:00 +23°C° 2.2 mm 4 mps 756 mmHg 96%
    01:00 +23°C° 2.2 mm 4 mps 756 mmHg 96%
    02:00 +23°C° 2 mm 4 mps 756 mmHg 96%
    03:00 +23°C° 2 mm 4 mps 755 mmHg 96%
    04:00 +23°C° 2 mm 4 mps 755 mmHg 96%
    05:00 +23°C° 2.2 mm 4 mps 756 mmHg 96%
    06:00 +23°C° 2.2 mm 4 mps 756 mmHg 96%
    07:00 +25°C° 2.2 mm 4 mps 756 mmHg 95%
    08:00 +27°C° 1.6 mm 4 mps 756 mmHg 87%
    09:00 +28°C° 1.6 mm 4 mps 756 mmHg 79%
    10:00 +30°C° 1.6 mm 4 mps 756 mmHg 71%
    11:00 +32°C° 1 mm 4 mps 755 mmHg 72%
    12:00 +32°C° 1 mm 4 mps 755 mmHg 73%
    13:00 +32°C° 1 mm 4 mps 754 mmHg 74%
    14:00 +32°C° 0.6 mm 5 mps 754 mmHg 76%
    15:00 +30°C° 0.6 mm 5 mps 753 mmHg 77%
    16:00 +30°C° 0.6 mm 5 mps 753 mmHg 79%
    17:00 +29°C° 0.6 mm 5 mps 753 mmHg 83%
    18:00 +28°C° 0.6 mm 5 mps 754 mmHg 87%
    19:00 +26°C° 0.6 mm 5 mps 754 mmHg 91%
    20:00 +26°C° 0.6 mm 5 mps 754 mmHg 92%
    21:00 +26°C° 0.6 mm 4 mps 754 mmHg 92%
    22:00 +26°C° 0.6 mm 4 mps 755 mmHg 93%
    23:00 +26°C° 0.3 mm 4 mps 754 mmHg 93%

    25 February, Sunday

    Time Temperature Precipitation Wind Pressure Humidity
    00:00 +26°C° 0.3 mm 4 mps 754 mmHg 94%
    01:00 +25°C° 0.3 mm 4 mps 753 mmHg 94%
    02:00 +25°C° 0.1 mm 4 mps 753 mmHg 94%
    03:00 +25°C° 0.1 mm 4 mps 753 mmHg 95%
    04:00 +25°C° 0.1 mm 4 mps 752 mmHg 95%
    05:00 +25°C° 0 mm 4 mps 753 mmHg 94%
    06:00 +25°C° 0 mm 4 mps 753 mmHg 92%
    07:00 +26°C° 0 mm 4 mps 753 mmHg 90%
    08:00 +28°C° 0 mm 4 mps 753 mmHg 80%
    09:00 +31°C° 0 mm 3 mps 753 mmHg 69%
    10:00 +34°C° 0 mm 3 mps 752 mmHg 59%
    11:00 +35°C° 0.1 mm 3 mps 752 mmHg 56%
    12:00 +36°C° 0.1 mm 4 mps 751 mmHg 53%
    13:00 +37°C° 0.1 mm 4 mps 751 mmHg 50%
    14:00 +35°C° 0.2 mm 4 mps 751 mmHg 56%
    15:00 +34°C° 0.2 mm 4 mps 751 mmHg 62%
    16:00 +33°C° 0.2 mm 5 mps 750 mmHg 69%
    17:00 +30°C° 2.4 mm 4 mps 751 mmHg 76%
    18:00 +28°C° 2.4 mm 3 mps 752 mmHg 83%
    19:00 +27°C° 2.4 mm 3 mps 753 mmHg 91%
    20:00 +26°C° 1.8 mm 4 mps 753 mmHg 91%
    21:00 +26°C° 1.8 mm 5 mps 754 mmHg 92%
    22:00 +26°C° 1.8 mm 5 mps 754 mmHg 93%
    23:00 +24°C° 1.1 mm 6 mps 754 mmHg 93%

    26 February, Monday

    Time Temperature Precipitation Wind Pressure Humidity
    00:00 +24°C° 1.1 mm 6 mps 754 mmHg 94%
    01:00 +23°C° 1.1 mm 7 mps 754 mmHg 94%
    02:00 +23°C° 0.5 mm 7 mps 754 mmHg 94%
    03:00 +23°C° 0.5 mm 7 mps 754 mmHg 94%
    04:00 +23°C° 0.5 mm 7 mps 754 mmHg 93%
    05:00 +23°C° 0.2 mm 7 mps 755 mmHg 93%
    06:00 +23°C° 0.2 mm 6 mps 755 mmHg 93%
    07:00 +23°C° 0.2 mm 6 mps 756 mmHg 93%
    08:00 +23°C° 0.1 mm 6 mps 756 mmHg 90%
    09:00 +23°C° 0.1 mm 6 mps 756 mmHg 88%
    10:00 +24°C° 0.1 mm 6 mps 756 mmHg 86%
    11:00 +26°C° 0 mm 6 mps 756 mmHg 80%
    12:00 +26°C° 0 mm 6 mps 756 mmHg 74%
    13:00 +27°C° 0 mm 6 mps 756 mmHg 69%
    14:00 +27°C° 0 mm 6 mps 756 mmHg 70%
    15:00 +26°C° 0 mm 6 mps 756 mmHg 71%
    16:00 +26°C° 0 mm 6 mps 756 mmHg 72%
    17:00 +25°C° 0 mm 5 mps 756 mmHg 75%
    18:00 +23°C° 0 mm 5 mps 757 mmHg 78%
    19:00 +22°C° 0 mm 5 mps 757 mmHg 81%
    20:00 +22°C° 0 mm 5 mps 757 mmHg 83%
    21:00 +21°C° 0 mm 4 mps 758 mmHg 85%
    22:00 +21°C° 0 mm 4 mps 758 mmHg 86%
    23:00 +21°C° 0 mm 4 mps 758 mmHg 87%
    Show more